{"data":{"norad_id":45440,"intl_designator":"2020-020S","name":"ONEWEB-0037","alt_names":[],"object_type":"PAYLOAD","status":"ACTIVE","operator":null,"country":"UK","launch_date":"2020-03-21","launch_site_code":"TYMSC","launch_vehicle":null,"mission":null,"orbit_class":"UNKNOWN","rcs_meters":null,"size_class":null,"mass_kg":null,"dimensions":null,"purposes":["comms"],"wikipedia_slug":null,"has_3d_model":false,"image_url":null,"decayed_at":null,"tle_current":{"epoch":"2026-09-20T01:43:07.461696Z","epoch_age_seconds":51450,"freshness":"FRESH","line1":"1 45440U 20020S   26263.07161414 -.00000439  00000+0 -12741-2 0  9998","line2":"2 45440  87.8984   2.1837 0001684 106.4527 253.6786 13.11415672315139","mean_motion":13.11415672,"eccentricity":0.0001684,"inclination_deg":87.8984,"raan_deg":2.1837,"arg_perigee_deg":106.4527,"mean_anomaly_deg":253.6786,"bstar":-0.0012741,"rev_number":31513,"period_min":109.8050016288,"perigee_km":1216.4084770501,"apogee_km":1218.96675078,"semimajor_km":7595.8246139151,"source":"CELESTRAK","updated_at":"2026-09-20T09:00:44.555493Z"}}}